Reading, PA

12:30 PM EDT on June 21, 2018 (GMT -0400)
Reading Regional-Spaatz

Weather History for KRDG - August, 2017

Change the Weather History Date:

Sunday, August 13, 2017

  Actual Average Record
Temperature  
Mean Temperature 73 °F 74 °F  
Max Temperature 82 °F 84 °F 100 °F (1944)
Min Temperature 63 °F 63 °F 49 °F (1971)
Degree Days  
Heating Degree Days 0 0  
Month to date heating degree days 0 0  
Since 1 June heating degree days 16 25  
Since 1 July heating degree days 0 1  
Cooling Degree Days 8 9  
Month to date cooling degree days 102 117  
Year to date cooling degree days 774 669  
Since 1 June cooling degree days 699 609  
Growing Degree Days 22 (Base 50)    
Moisture  
Dew Point 65 °F    
Average Humidity 76    
Maximum Humidity 100    
Minimum Humidity 51    
Precipitation  
Precipitation 0.00 in 0.11 in 3.25 in (1875)
Month to date precipitation 2.69 1.50  
Year to date precipitation 29.83 26.82  
Sea Level Pressure  
Sea Level Pressure 29.94 in    
Wind  
Wind Speed 4 mph (NW)    
Max Wind Speed 12 mph    
Max Gust Speed 18 mph    
Visibility 7 miles    
Events Fog    
T = Trace of Precipitation, MM = Missing Value Source: NWS Daily Summary

Daily Weather History Graph

Daily Weather History Graph

Search for Another Location

Airport or City:

Astronomy

Aug. 13, 2017 Rise Set
Actual Time 6:13 AM EDT 8:03 PM EDT
Civil Twilight 5:43 AM EDT 8:32 PM EDT
Nautical Twilight 5:07 AM EDT 9:08 PM EDT
Astronomical Twilight 4:29 AM EDT 9:46 PM EDT
Moon 11:35 PM EDT (8/13) 12:11 PM EDT (8/13)
Length of Visible Light 14h 49m
Length of Day
13h 50m
Waning Gibbous, 65% of the Moon is Illuminated
Aug 13
Waning Gibbous
Aug 14
Last Quarter
Aug 21
New
Aug 29
First Quarter
Sep 6
Full

Hourly Weather History & Observations

Time (EDT) Temp. Heat Index Dew Point Humidity Pressure Visibility Wind Dir Wind Speed Gust Speed Precip Events Conditions
12:08 AM 66.9 °F - 66.9 °F 100% 29.88 in 3.0 mi Calm Calm - N/A   Partly Cloudy
12:15 AM 66.9 °F - 66.9 °F 100% 29.88 in 2.0 mi Calm Calm - N/A   Partly Cloudy
12:25 AM 68.0 °F - 68.0 °F 100% 29.88 in 9.0 mi NNW 3.5 mph - N/A   Partly Cloudy
12:50 AM 66.2 °F - 66.2 °F 100% 29.89 in 2.5 mi Calm Calm - N/A   Mostly Cloudy
12:54 AM 66.0 °F - 66.0 °F 100% 29.90 in 1.0 mi SE 3.5 mph - N/A   Mist
1:01 AM 66.0 °F - 66.0 °F 100% 29.89 in 0.8 mi Calm Calm - N/A   Mist
1:08 AM 66.0 °F - 66.0 °F 100% 29.89 in 1.0 mi Calm Calm - N/A   Mist
1:25 AM 66.9 °F - 66.9 °F 100% 29.89 in 2.0 mi Calm Calm - N/A   Scattered Clouds
1:37 AM 66.9 °F - 66.9 °F 100% 29.89 in 10.0 mi Calm Calm - N/A   Partly Cloudy
1:54 AM 64.9 °F - 64.9 °F 100% 29.89 in 10.0 mi Calm Calm - N/A   Clear
2:02 AM 64.9 °F - 64.9 °F 100% 29.89 in 1.5 mi East 3.5 mph - N/A   Partly Cloudy
2:05 AM 64.9 °F - 64.9 °F 100% 29.89 in 0.8 mi East 3.5 mph - N/A   Mist
2:13 AM 64.9 °F - 64.9 °F 100% 29.89 in 0.5 mi Variable 3.5 mph - N/A Fog Fog
2:18 AM 66.0 °F - 66.0 °F 100% 29.89 in 1.0 mi Calm Calm - N/A   Mist
2:22 AM 66.9 °F - 66.9 °F 100% 29.89 in 3.0 mi Calm Calm - N/A   Mostly Cloudy
2:49 AM 66.2 °F - 66.2 °F 100% 29.88 in 3.0 mi NW 4.6 mph - N/A   Overcast
2:54 AM 66.9 °F - 66.9 °F 100% 29.89 in 3.0 mi NW 4.6 mph - N/A   Overcast
3:30 AM 66.0 °F - 66.0 °F 100% 29.89 in 8.0 mi WNW 3.5 mph - N/A   Overcast
3:49 AM 66.2 °F - 66.2 °F 100% 29.89 in 7.0 mi Calm Calm - N/A   Scattered Clouds
3:54 AM 66.0 °F - 66.0 °F 100% 29.89 in 7.0 mi Calm Calm - N/A   Partly Cloudy
4:54 AM 64.0 °F - 64.0 °F 100% 29.91 in 10.0 mi NW 4.6 mph - N/A   Clear
5:54 AM 64.0 °F - 64.0 °F 100% 29.92 in 8.0 mi North 3.5 mph - N/A   Clear
6:30 AM 63.0 °F - 63.0 °F 100% 29.93 in 2.5 mi NNW 4.6 mph - N/A   Clear
6:32 AM 63.0 °F - 63.0 °F 100% 29.93 in 2.0 mi NNW 3.5 mph - N/A   Partly Cloudy
6:35 AM 63.0 °F - 63.0 °F 100% 29.93 in 1.0 mi NW 3.5 mph - N/A   Mist
6:44 AM 63.0 °F - 63.0 °F 100% 29.94 in 2.5 mi Calm Calm - N/A   Clear
6:51 AM 62.6 °F - 62.6 °F 100% 29.94 in 7.0 mi Calm Calm - N/A   Clear
6:54 AM 64.0 °F - 64.0 °F 100% 29.95 in 10.0 mi Calm Calm - N/A   Clear
7:54 AM 68.0 °F - 64.9 °F 90% 29.97 in 10.0 mi NW 4.6 mph - N/A   Clear
8:54 AM 72.0 °F - 64.9 °F 78% 29.98 in 10.0 mi Calm Calm - N/A   Clear
9:54 AM 72.0 °F - 64.0 °F 76% 30.00 in 10.0 mi North 9.2 mph - N/A   Partly Cloudy
10:28 AM 73.0 °F - 64.0 °F 73% 30.00 in 10.0 mi NNE 4.6 mph - N/A   Mostly Cloudy
10:54 AM 73.9 °F - 64.0 °F 71% 30.02 in 10.0 mi NNW 8.1 mph - N/A   Mostly Cloudy
11:09 AM 73.9 °F - 64.0 °F 71% 30.00 in 10.0 mi North 4.6 mph - N/A   Mostly Cloudy
11:54 AM 75.9 °F - 63.0 °F 64% 30.01 in 10.0 mi Variable 5.8 mph - N/A   Mostly Cloudy
12:54 PM 75.9 °F - 63.0 °F 64% 30.01 in 10.0 mi NNW 8.1 mph - N/A   Overcast
1:54 PM 78.1 °F - 63.0 °F 60% 30.01 in 10.0 mi WNW 9.2 mph - N/A   Mostly Cloudy
2:54 PM 81.0 °F 82.2 °F 63.0 °F 54% 30.00 in 10.0 mi WNW 9.2 mph - N/A   Scattered Clouds
3:54 PM 79.0 °F - 60.1 °F 52% 30.00 in 10.0 mi North 8.1 mph - N/A   Scattered Clouds
4:54 PM 81.0 °F 81.7 °F 61.0 °F 50% 30.00 in 10.0 mi NNW 3.5 mph - N/A   Partly Cloudy
5:54 PM 81.0 °F 81.7 °F 61.0 °F 50% 30.00 in 10.0 mi West 5.8 mph - N/A   Partly Cloudy
6:54 PM 78.1 °F - 62.1 °F 58% 30.00 in 10.0 mi West 4.6 mph - N/A   Clear
7:54 PM 75.0 °F - 64.0 °F 69% 30.01 in 10.0 mi WSW 3.5 mph - N/A   Scattered Clouds
8:54 PM 73.0 °F - 64.9 °F 76% 30.02 in 10.0 mi West 4.6 mph - N/A   Mostly Cloudy
9:54 PM 71.1 °F - 64.9 °F 81% 30.03 in 10.0 mi SSW 3.5 mph - N/A   Clear
10:54 PM 68.0 °F - 64.9 °F 90% 30.04 in 10.0 mi SW 3.5 mph - N/A   Clear
11:54 PM 66.0 °F - 64.0 °F 93% 30.05 in 10.0 mi Calm Calm - N/A   Clear